STARLINK-11254, 60731

Orbit data source: Space-Track

STARLINK-11254, 60731 is a payload satellite owned by SpaceX/Seattle (US) in LEO that was launched on Wed, 28 Aug 2024 UTC via an FALCON 9 launch vehicle from the Air Force Eastern Test Range (AFETR). Payload-class satellites include a variety of spacecraft equipped with specific instruments for various scientific and technological missions. These include communications satellites like Starlink; space stations such as the ISS; scientific satellites like the Hubble; Earth observation satellites from companies like Planet Labs, Umbra, and HawkEye 360; GPS; miniature CubeSats for education and research; and military/defense satellites.

Loading next visibility...
Identifier
60731, 2024-152M
Orbit
LEO
Last TLE update
13 hours ago
Origin
Manufacturer
SpaceX/Seattle
Mission
Operational Commercial Communications
Bus & Motor
STARLINK V2M, Unknown motor
Mass
730 kg wet, ~700 kg dry
Launch date (UTC)
2024-08-28 (10 months ago)
Launch vehicle
FALCON 9
Launch site
Air Force Eastern Test Range (AFETR)
Object type
Payload
Rocket body
Debris
Shape & HBR
Box + 2 Pan, 29 m
Radar Cross Section
36.964 m², Large (>1 m²)

Expand to show TLE details & history

TLE from 13 hours ago
0 STARLINK-11254
1 60731U 24152M   25186.42606780 -.00000890  00000-0 -24838-5 0  9995
2 60731  53.1595 254.8723 0001622  86.5457 273.5746 15.69700088 50018
Epoch: 2025-07-05T10:13Z
TLE epoch observation values (Epoch: 2025-07-05T10:13:32.257Z)
Latitude
-0.00008°
Longitude
177.82355°
Altitude
360.602 km
Speed
7.694 km/s
True Right ascension
16h 59m 29s
True Declination
0° 00' 00"
Sunlit
Object was in full shadow at epoch
Visualization orbit readout
Latitude
49.00885°
Longitude
-63.79696°
Altitude
364.317 km
Speed
7.697 km/s
Apparent Right ascension
23h 48m 58s
Apparent Declination
6° 18' 33"
Sunlit
Object is in daylight
Visualization observer readout
Local Sidereal Time
10:51:12
Azimuth
340.548° N
Elevation
-41.892°
Doppler factor
1
Orbital elements
Apogee altitude
361.109 km
Perigee altitude
358.923 km
Semi-major axis
6,738.153 km
Eccentricity
0.00016
Inclination
53.1595°
RAAN
254.8723°
Arg. of periapsis
86.5457°
True anomaly
Unknown
Mean anomaly
273.5746°
Eccentric anomaly
Unknown
Mean motion
3.92403 °/min
Orbital period
91.74 mins
BSTAR
-0.0000024838
Loading maneuver chart data...
Loading SW <> Apogee altitude chart data...
Loading historical data...
Loading historical data...
Loading historical data...
Loading historical data...
Loading historical data...
Loading historical data...
Loading historical data...

STARLINK-11254 Visibility forecast

Observer location: undefined°, undefined°

Span
Click to sort rows by Start time (UTC) header in descending order
Start Az.
Max El. time (UTC)
Max El. Az.
Max El.
End time (UTC)
End Az.
4 mins2025-07-06 14:14:56.250Z297.569° NW2025-07-06 14:16:56.250Z186.307° SSW39.345°2025-07-06 14:18:56.250Z143.86° SSE
|